W7KKE-3 Weather Reports


time (UTC)temp
F
wind
direction
speed
knots
gust
knots
rain 1hr
in
rain 24hr
in
rain mn
in
humidity
%
barometer
mb
20260906223825 63 187 6.1 9.6 0.00 0.01 0.01 86 1014.1
20260906223325 63 191 4.3 9.6 0.00 0.01 0.01 86 1014.0
20260906222825 64 208 5.2 8.7 0.00 0.01 0.01 86 1014.0
20260906222325 64 233 4.3 8.7 0.00 0.01 0.01 87 1014.0
20260906221326 64 226 2.6 10.4 0.00 0.01 0.01 88 1013.9
20260906220825 63 189 3.5 10.4 0.00 0.01 0.01 88 1013.9
20260906215825 63 235 3.5 11.3 0.00 0.01 0.01 88 1013.9
20260906215325 62 172 5.2 11.3 0.00 0.01 0.01 88 1014.0
20260906214825 62 191 4.3 11.3 0.00 0.01 0.01 88 1013.9
20260906214326 62 179 4.3 11.3 0.00 0.01 0.01 88 1013.9
20260906213825 62 186 7.8 8.7 0.00 0.01 0.01 88 1014.0
20260906213325 62 183 4.3 9.6 0.00 0.01 0.01 89 1013.8
20260906212825 62 187 3.5 9.6 0.00 0.01 0.01 88 1013.9
20260906212325 62 173 1.7 9.6 0.00 0.01 0.01 88 1013.8
20260906211326 62 190 0.9 10.4 0.00 0.01 0.01 88 1013.8
20260906210825 62 207 5.2 10.4 0.00 0.01 0.01 88 1013.7
20260906205825 62 218 2.6 10.4 0.00 0.01 0.01 88 1013.6
20260906205325 62 193 3.5 10.4 0.00 0.01 0.01 88 1013.6
20260906204825 63 198 7.0 8.7 0.00 0.01 0.01 88 1013.5
20260906204326 62 183 5.2 8.7 0.00 0.01 0.01 88 1013.4
20260906203825 62 200 3.5 10.4 0.00 0.01 0.01 89 1013.4
20260906203325 62 168 2.6 10.4 0.00 0.01 0.01 88 1013.4
20260906202825 62 252 0.9 10.4 0.00 0.01 0.01 89 1013.5
20260906202325 62 203 6.1 8.7 0.00 0.01 0.01 89 1013.5
20260906201825 62 184 3.5 7.8 0.00 0.01 0.01 89 1013.5
20260906201326 62 198 6.1 7.8 0.00 0.01 0.01 88 1013.5
20260906200825 62 242 5.2 7.0 0.00 0.01 0.01 89 1013.5
20260906200325 62 225 2.6 6.1 0.00 0.01 0.01 89 1013.5
20260906195825 62 260 0.9 5.2 0.00 0.01 0.01 90 1013.4
20260906195325 61 179 3.5 5.2 0.00 0.01 0.01 90 1013.3
20260906194326 61 201 1.7 5.2 0.00 0.01 0.01 89 1013.3
20260906193825 61 231 2.6 4.3 0.00 0.01 0.01 90 1013.2
20260906193325 61 116 2.6 3.5 0.00 0.01 0.01 90 1013.3
20260906192825 61 261 0.0 3.5 0.00 0.01 0.01 91 1013.2
20260906192325 60 222 0.0 3.5 0.00 0.01 0.01 90 1013.2
20260906191825 60 289 0.9 1.7 0.00 0.01 0.01 91 1013.1
20260906191326 60 215 0.0 1.7 0.00 0.01 0.01 91 1013.2
20260906190825 60 294 0.0 1.7 0.00 0.01 0.01 91 1013.3
20260906185825 61 260 0.0 3.5 0.00 0.01 0.01 91 1013.3
20260906185325 61 295 0.0 3.5 0.00 0.01 0.01 91 1013.3
20260906184825 61 270 1.7 3.5 0.00 0.01 0.01 91 1013.3
20260906183825 61 285 1.7 2.6 0.00 0.01 0.01 91 1013.2
20260906183325 61 0 0.0 0.0 0.00 0.01 0.01 92 1013.1
20260906182825 60 253 0.0 1.7 0.00 0.01 0.01 91 1013.2
20260906182325 60 256 0.0 1.7 0.00 0.01 0.01 92 1013.1
20260906181326 60 268 0.0 1.7 0.00 0.01 0.01 92 1013.1
20260906180325 59 246 0.0 1.7 0.00 0.01 0.01 92 1012.9
20260906175825 59 226 0.0 1.7 0.00 0.01 0.01 92 1012.9
20260906174825 59 275 0.0 1.7 0.00 0.01 0.01 92 1012.8
20260906174326 59 247 0.0 2.6 0.00 0.01 0.01 92 1012.9
20260906172825 58 88 0.0 2.6 0.00 0.01 0.01 92 1012.7
20260906172325 58 100 0.0 2.6 0.00 0.01 0.01 92 1012.8
20260906171825 58 93 0.0 2.6 0.00 0.01 0.01 92 1012.8
20260906171326 58 106 0.0 1.7 0.00 0.01 0.01 92 1012.8
20260906170826 58 134 0.0 2.6 0.00 0.01 0.01 92 1012.8
20260906170326 58 82 0.9 2.6 0.00 0.01 0.01 92 1012.8
20260906165825 58 103 1.7 2.6 0.00 0.01 0.01 92 1012.9
20260906165325 58 126 0.9 2.6 0.00 0.01 0.01 92 1013.0
20260906164326 58 68 0.0 2.6 0.00 0.01 0.01 92 1012.9
20260906163825 58 147 0.0 2.6 0.00 0.01 0.01 92 1012.9
20260906163325 58 137 0.0 2.6 0.00 0.01 0.01 92 1012.7
20260906162825 58 88 0.0 2.6 0.00 0.01 0.01 92 1012.7
20260906162325 58 100 0.0 2.6 0.00 0.01 0.01 92 1012.7
20260906161825 57 127 0.0 2.6 0.00 0.01 0.01 92 1012.7
20260906160825 57 100 0.9 2.6 0.00 0.01 0.01 92 1012.7
20260906160325 57 93 0.9 3.5 0.00 0.01 0.01 92 1012.7
20260906155325 57 140 0.0 3.5 0.00 0.01 0.01 92 1012.6
20260906154825 57 107 1.7 3.5 0.00 0.01 0.01 92 1012.5
20260906154327 57 93 0.9 3.5 0.00 0.01 0.01 92 1012.5
20260906153325 57 109 0.9 2.6 0.00 0.01 0.01 92 1012.5
20260906152325 56 0 0.0 0.0 0.00 0.01 0.01 92 1012.4
20260906151326 56 102 0.0 3.5 0.00 0.01 0.01 92 1012.3
20260906150825 56 99 0.0 3.5 0.00 0.01 0.01 92 1012.2
20260906150325 56 100 0.9 3.5 0.00 0.01 0.01 92 1012.1
20260906145825 56 110 1.7 4.3 0.00 0.01 0.01 92 1012.1
20260906145325 56 113 0.9 4.3 0.00 0.01 0.01 92 1012.1
20260906144825 56 116 2.6 4.3 0.00 0.01 0.01 92 1012.1
20260906144326 56 102 2.6 4.3 0.00 0.01 0.01 92 1012.0
20260906142825 56 96 0.9 2.6 0.00 0.01 0.01 92 1011.9
20260906141825 56 79 1.7 1.7 0.00 0.01 0.01 92 1011.8
20260906141326 56 68 1.7 1.7 0.00 0.01 0.01 92 1011.8
20260906140825 56 72 0.0 0.9 0.00 0.01 0.01 92 1011.7
20260906140325 56 0 0.0 0.0 0.00 0.01 0.01 92 1011.6
20260906135825 56 0 0.0 0.0 0.00 0.01 0.01 92 1011.6
20260906134326 56 100 0.9 4.3 0.01 0.01 0.01 92 1011.5
20260906133825 56 116 2.6 4.3 0.01 0.01 0.01 92 1011.6
20260906133325 56 112 1.7 3.5 0.01 0.01 0.01 92 1011.7
20260906132825 55 7 2.6 3.5 0.01 0.01 0.01 92 1011.6
20260906132325 55 103 0.0 3.5 0.01 0.01 0.01 92 1011.5
20260906131936 55 102 0.0 5.2 0.00 0.01 0.01 91 1011.6
20260906131825 55 103 0.9 3.5 0.01 0.01 0.01 92 1011.3
20260906131326 55 110 0.0 2.6 0.01 0.01 0.01 92 1011.3
20260906130826 55 105 0.9 1.7 0.01 0.01 0.01 92 1011.4
20260906130325 55 99 0.0 1.7 0.01 0.01 0.01 92 1011.4
20260906125825 55 123 0.9 5.2 0.01 0.01 0.01 92 1011.4
20260906125325 55 114 0.0 5.2 0.01 0.01 0.01 92 1011.5
20260906124825 55 102 0.0 5.2 0.00 0.01 0.01 91 1011.6
20260906124326 55 91 2.6 4.3 0.00 0.00 0.00 91 1011.6
20260906123825 56 100 1.7 3.5 0.00 0.00 0.00 91 1011.6
20260906123325 56 74 0.9 4.3 0.00 0.00 0.00 92 1011.8
20260906122825 56 112 0.0 4.3 0.00 0.00 0.00 92 1011.7
20260906122325 55 96 0.9 4.3 0.00 0.00 0.00 92 1011.6
20260906121326 55 107 0.9 2.6 0.00 0.00 0.00 92 1011.7
20260906120825 55 99 0.9 3.5 0.00 0.00 0.00 92 1011.7
20260906120325 55 96 0.9 3.5 0.00 0.00 0.00 92 1011.6
20260906115920 55 106 1.7 3.5 0.00 0.00 0.00 91 1011.7
20260906115825 55 106 1.7 3.5 0.00 0.00 0.00 91 1011.7
20260906115325 55 107 2.6 3.5 0.00 0.00 0.00 92 1011.7
20260906114825 55 98 1.7 3.5 0.00 0.00 0.00 91 1011.6
20260906114326 55 116 2.6 2.6 0.00 0.00 0.00 91 1011.6
20260906113825 54 98 1.7 3.5 0.00 0.00 0.00 91 1011.5
20260906112825 55 106 2.6 3.5 0.00 0.00 0.00 91 1011.5
20260906112325 55 106 2.6 3.5 0.00 0.00 0.00 91 1011.5
20260906111825 54 107 1.7 3.5 0.00 0.00 0.00 91 1011.5
20260906111326 54 100 1.7 3.5 0.00 0.00 0.00 91 1011.5
20260906110825 55 92 1.7 1.7 0.00 0.00 0.00 91 1011.4
20260906110325 54 100 1.7 3.5 0.00 0.00 0.00 91 1011.4
20260906105825 54 99 0.0 3.5 0.00 0.00 0.00 91 1011.3
20260906105325 54 102 0.9 3.5 0.00 0.00 0.00 91 1011.3
20260906104826 54 106 1.7 3.5 0.00 0.00 0.00 91 1011.2
20260906104326 54 105 0.9 3.5 0.00 0.00 0.00 91 1011.3
20260906103325 54 92 2.6 4.3 0.00 0.00 0.00 91 1011.3
20260906102825 54 98 2.6 4.3 0.00 0.00 0.00 91 1011.3
20260906102325 54 117 2.6 4.3 0.00 0.00 0.00 91 1011.3
20260906101825 54 103 2.6 3.5 0.00 0.00 0.00 91 1011.3
20260906101326 54 113 3.5 3.5 0.00 0.00 0.00 91 1011.3
20260906100825 54 110 2.6 3.5 0.00 0.00 0.00 91 1011.4
20260906100325 54 100 1.7 3.5 0.00 0.00 0.00 91 1011.4
20260906095825 54 103 1.7 3.5 0.00 0.00 0.00 91 1011.4
20260906095325 54 110 2.6 4.3 0.00 0.00 0.00 91 1011.4
20260906094326 55 96 3.5 4.3 0.00 0.00 0.00 91 1011.4
20260906093825 54 99 2.6 4.3 0.00 0.00 0.00 91 1011.5
20260906093325 55 96 3.5 3.5 0.00 0.00 0.00 91 1011.4
20260906092825 54 110 2.6 3.5 0.00 0.00 0.00 91 1011.5
20260906092325 54 99 2.6 3.5 0.00 0.00 0.00 91 1011.5
20260906091825 54 98 2.6 3.5 0.00 0.00 0.00 91 1011.5
20260906091326 54 106 1.7 3.5 0.00 0.00 0.00 91 1011.6
20260906090825 55 114 2.6 3.5 0.00 0.00 0.00 91 1011.5
20260906090325 55 109 2.6 2.6 0.00 0.00 0.00 91 1011.6
20260906085825 55 96 0.9 4.3 0.00 0.00 0.00 91 1011.6
20260906085325 55 106 0.9 4.3 0.00 0.00 0.00 91 1011.5
20260906084825 55 99 1.7 4.3 0.00 0.00 0.00 91 1011.5
20260906084326 55 114 2.6 4.3 0.00 0.00 0.00 91 1011.6
20260906083825 55 86 2.6 4.3 0.00 0.00 0.00 91 1011.6
20260906083326 55 103 1.7 4.3 0.00 0.00 0.00 91 1011.6
20260906082825 55 113 1.7 2.6 0.00 0.00 0.00 91 1011.7
20260906082325 55 103 1.7 3.5 0.00 0.00 0.00 91 1011.7
20260906081825 55 102 1.7 3.5 0.00 0.00 0.00 91 1011.7
20260906081326 55 102 0.9 3.5 0.00 0.00 0.00 91 1011.7
20260906080825 55 89 3.5 3.5 0.00 0.00 0.00 91 1011.7
20260906080325 55 98 1.7 3.5 0.00 0.00 0.00 91 1011.8
20260906075825 55 110 2.6 3.5 0.00 0.00 0.00 91 1011.7
20260906075325 55 106 1.7 3.5 0.00 0.00 0.00 91 1011.6
20260906074826 55 109 1.7 3.5 0.00 0.00 0.00 91 1011.7
20260906074326 56 89 1.7 4.3 0.00 0.00 0.00 91 1011.7
20260906073825 56 102 2.6 4.3 0.00 0.00 0.00 91 1011.7
20260906073325 56 91 1.7 4.3 0.00 0.00 0.00 91 1011.7
20260906072825 56 100 2.6 5.2 0.00 0.00 0.00 90 1011.7
20260906072325 56 93 2.6 5.2 0.00 0.00 0.00 90 1011.7
20260906071825 56 95 2.6 5.2 0.00 0.00 0.00 90 1011.7
20260906071326 55 100 3.5 4.3 0.00 0.00 0.00 90 1011.7
20260906070825 56 92 1.7 4.3 0.00 0.00 0.00 90 1011.7
20260906070326 56 116 1.7 3.5 0.00 0.00 0.00 90 1011.7
20260906065825 56 110 1.7 3.5 0.00 0.00 0.00 90 1011.8
20260906065325 56 88 2.6 2.6 0.00 0.00 0.00 90 1011.7
20260906064825 56 105 0.9 1.7 0.00 0.00 0.00 90 1011.7
20260906064326 56 91 0.9 1.7 0.00 0.00 0.00 90 1011.8
20260906063825 56 85 0.9 3.5 0.00 0.00 0.00 90 1011.8
20260906063325 56 88 1.7 3.5 0.00 0.00 0.00 90 1011.8
20260906062325 56 107 2.6 3.5 0.00 0.00 0.00 90 1011.8
20260906061826 56 85 1.7 3.5 0.00 0.00 0.00 90 1011.8
20260906061326 56 99 2.6 3.5 0.00 0.00 0.00 90 1011.9
20260906060825 56 105 1.7 3.5 0.00 0.00 0.00 90 1011.9
20260906060325 56 96 2.6 2.6 0.00 0.00 0.00 90 1011.9
20260906055825 56 102 1.7 1.7 0.00 0.00 0.00 90 1011.9
20260906055325 56 105 0.9 2.6 0.00 0.00 0.00 90 1011.9
20260906054826 56 103 0.9 2.6 0.00 0.00 0.00 90 1011.9
20260906054326 57 100 1.7 2.6 0.00 0.00 0.00 90 1012.0
20260906053825 57 110 1.7 3.5 0.00 0.00 0.00 90 1012.0
20260906053325 57 91 1.7 3.5 0.00 0.00 0.00 89 1012.0
20260906052825 57 105 0.9 3.5 0.00 0.00 0.00 89 1012.0
20260906052325 57 107 1.7 2.6 0.00 0.00 0.00 89 1012.1
20260906051825 57 84 1.7 1.7 0.00 0.00 0.00 89 1012.1
20260906051326 57 88 0.9 2.6 0.00 0.00 0.00 89 1012.2
20260906050825 57 0 0.0 2.6 0.00 0.00 0.00 89 1012.2
20260906050325 57 116 0.0 2.6 0.00 0.00 0.00 89 1012.3
20260906045825 57 0 1.7 1.7 0.00 0.00 0.00 89 1012.2
20260906045325 57 116 0.0 0.9 0.00 0.00 0.00 89 1012.1
20260906044826 57 107 0.0 3.5 0.00 0.00 0.00 89 1012.2
20260906044326 58 78 0.9 3.5 0.00 0.00 0.00 89 1012.1
20260906043827 58 162 0.9 3.5 0.00 0.00 0.00 89 1012.0
20260906043325 58 0 0.9 0.9 0.00 0.00 0.00 89 1012.0
20260906042825 58 0 0.0 1.7 0.00 0.00 0.00 89 1011.9
20260906042325 58 116 0.0 1.7 0.00 0.00 0.00 89 1012.0
20260906041825 58 110 0.0 1.7 0.00 0.00 0.00 89 1012.0
20260906040825 58 92 1.7 3.5 0.00 0.00 0.00 89 1012.0
20260906040326 58 103 2.6 3.5 0.00 0.00 0.00 89 1012.1
20260906035825 58 0 1.7 1.7 0.00 0.01 0.00 88 1012.0
20260906035325 59 0 0.0 0.0 0.00 0.01 0.00 88 1011.9
20260906034825 59 81 0.0 1.7 0.00 0.01 0.00 88 1011.9
20260906034326 59 88 0.0 1.7 0.00 0.01 0.00 88 1012.0
20260906033825 59 98 0.9 1.7 0.00 0.01 0.00 88 1012.0
20260906033325 59 15 0.9 2.6 0.00 0.01 0.00 88 1012.1
20260906032825 59 327 0.9 2.6 0.00 0.01 0.00 88 1012.1
20260906032325 59 117 0.0 2.6 0.00 0.01 0.00 88 1012.1
20260906031825 60 0 0.0 0.0 0.00 0.01 0.00 88 1012.2
20260906031326 60 0 0.0 0.0 0.00 0.01 0.00 88 1012.2
20260906030825 60 0 0.0 0.0 0.00 0.01 0.00 87 1012.3
20260906030325 60 0 0.0 0.0 0.00 0.01 0.00 87 1012.2
20260906025825 60 0 0.0 0.0 0.00 0.02 0.00 87 1012.2
20260906025325 61 0 0.0 0.0 0.00 0.02 0.00 87 1012.2
20260906024827 60 0 0.0 0.0 0.00 0.02 0.00 87 1012.3
20260906024326 60 0 0.0 0.0 0.00 0.02 0.00 87 1012.3
20260906023825 60 312 0.0 4.3 0.00 0.02 0.00 87 1012.2
20260906022825 61 330 1.7 4.3 0.00 0.02 0.00 87 1012.2
20260906022325 61 333 0.0 4.3 0.00 0.02 0.00 87 1012.2
20260906021825 61 308 0.0 4.3 0.00 0.02 0.00 87 1012.2
20260906020826 61 337 0.0 3.5 0.00 0.02 0.00 87 1012.2
20260906020325 61 333 0.9 3.5 0.00 0.02 0.00 87 1012.2
20260906015825 61 313 1.7 4.3 0.00 0.02 0.00 86 1012.2
20260906015325 61 294 1.7 4.3 0.00 0.02 0.00 86 1012.2
20260906014825 61 319 2.6 4.3 0.00 0.02 0.00 86 1012.2
20260906014326 62 331 2.6 4.3 0.00 0.02 0.00 86 1012.3
20260906013825 62 294 1.7 4.3 0.00 0.02 0.00 86 1012.3
20260906013325 62 296 2.6 4.3 0.00 0.02 0.00 86 1012.2
20260906012826 62 296 1.7 3.5 0.00 0.02 0.00 86 1012.2
20260906012325 62 344 0.9 3.5 0.00 0.02 0.00 86 1012.3
20260906011825 62 291 0.9 3.5 0.00 0.02 0.00 85 1012.2
20260906011326 62 284 1.7 3.5 0.00 0.02 0.00 86 1012.3
20260906010825 62 310 1.7 5.2 0.00 0.02 0.00 86 1012.3
20260906010329 62 337 0.9 5.2 0.00 0.02 0.00 86 1012.3
20260906005825 62 296 2.6 5.2 0.00 0.02 0.00 86 1012.2
20260906005325 62 327 3.5 4.3 0.00 0.02 0.00 87 1012.3
20260906004825 62 287 2.6 4.3 0.00 0.02 0.00 87 1012.3
20260906004326 62 305 2.6 4.3 0.00 0.02 0.00 87 1012.3
20260906003825 62 299 0.9 3.5 0.00 0.02 0.00 87 1012.2
20260906003325 62 306 1.7 3.5 0.00 0.02 0.00 87 1012.2
20260906002825 62 322 1.7 4.3 0.00 0.02 0.00 87 1012.2
20260906002325 62 331 2.6 4.3 0.00 0.02 0.00 87 1012.2
20260906001825 62 295 2.6 4.3 0.00 0.02 0.00 87 1012.2
20260906001326 62 282 2.6 3.5 0.00 0.02 0.00 87 1012.3
20260906000825 62 330 2.6 2.6 0.00 0.02 0.00 87 1012.2
20260906000326 62 277 0.9 2.6 0.00 0.02 0.00 87 1012.3
20260905235825 62 288 0.9 1.7 0.00 0.02 0.00 87 1012.3
20260905235325 62 263 0.9 5.2 0.00 0.02 0.00 87 1012.3
20260905234825 62 278 0.9 5.2 0.00 0.02 0.00 87 1012.3
20260905234326 63 294 2.6 5.2 0.00 0.02 0.00 87 1012.3
20260905233825 63 289 1.7 5.2 0.00 0.02 0.00 87 1012.3
20260905233325 63 275 2.6 5.2 0.00 0.02 0.00 87 1012.3
20260905232825 63 287 3.5 5.2 0.00 0.02 0.00 87 1012.3
20260905232325 63 281 3.5 5.2 0.00 0.02 0.00 86 1012.3
20260905231827 63 289 3.5 5.2 0.00 0.02 0.00 87 1012.3
20260905231327 63 287 2.6 5.2 0.00 0.02 0.00 87 1012.4
20260905230827 63 287 2.6 4.3 0.00 0.02 0.00 86 1012.4
20260905230325 63 299 2.6 5.2 0.00 0.02 0.00 87 1012.3
20260905225825 63 295 1.7 5.2 0.00 0.19 0.00 86 1012.3
20260905225325 64 315 3.5 5.2 0.00 0.19 0.00 86 1012.4
20260905224825 64 317 2.6 5.2 0.00 0.19 0.00 86 1012.4